sat.trackr.live / text

‹ back to catalog

STARLINK-2178

NORAD 47760 · 2021-017AQ

PAYLOAD ACTIVE UNKNOWN

§ Identity

Operator
Country
US
Launch date
2021-03-04
Launch site
AFETR
Launch vehicle
Mass (kg)
RCS (m²)

Purposes: comms

External: N2YO · Heavens-Above · Gunter

§ Orbital elements

Epoch: 2026-09-15T19:35:32.487072Z

Period
94.02 min
Inclination
53.1607°
Eccentricity
0.0001756
Mean motion
15.31649373 rev/d
Perigee alt
469.7 km
Apogee alt
472.1 km
Semi-major
6,849.0 km
B*
5.0671e-4
RAAN
51.8987°
Arg perigee
96.1794°
Mean anomaly
263.9408°
Rev number
30,682

§ Raw data

STARLINK-21781 47760U 21017AQ  26258.81634823  .00015366  00000+0  50671-3 0  99952 47760  53.1607  51.8987 0001756  96.1794 263.9408 15.31649373306824

JSON: /api/v1/satellites/47760 · /tle

For live sub-satellite position, see the globe view (requires WebGL).

§ Visibility from observer

Set your observer location to see the next 7 days of passes ≥ 10°. The values pass through the URL so the page stays shareable.

No JS? Fill the form by hand. The geolocation button needs JavaScript.